Theta_e
339 336 337 343 345 348 349 350 351 352 352 351 350 350 350 349 349 351 351 351 352 351 351 351 352 351 351 351 351 350 350 350 349 349 348 347 346 346 346 346 345 345 343 343 343 343 341 341 344 345 346 346 346 345 344 345 346 346 346 345 347 347 347 347 347 346 346 345 346 345 345 345 345 345 345 345 345 343 341 341 340 338 339 342 347
338 340 339 342 348 349 349 350 352 351 351 352 351 350 349 349 349 351 351 351 351 351 351 350 350 351 350 350 350 350 350 349 349 349 347 347 347 346 346 346 345 344 344 344 342 340 339 340 341 343 344 345 344 344 344 345 345 345 345 346 346 346 346 346 345 345 345 344 344 344 343 344 343 343 343 345 344 343 341 341 339 336 336 343 344
340 340 339 342 348 349 348 350 351 352 351 351 351 349 349 349 350 351 351 351 351 351 350 350 350 350 350 350 350 350 350 349 348 348 347 347 346 345 345 345 344 344 344 343 341 340 339 340 340 342 342 342 342 342 344 344 345 344 345 345 346 346 346 345 345 345 344 343 342 342 341 342 342 341 342 344 343 343 340 340 339 338 336 343 342
340 340 340 342 345 346 347 350 350 351 351 351 350 349 349 349 349 350 351 350 351 350 350 350 350 349 349 349 349 349 349 349 349 348 347 347 346 345 345 344 344 343 342 342 340 338 339 340 340 340 340 340 341 342 342 342 344 344 344 345 346 346 345 345 344 344 343 342 341 339 339 336 337 340 341 342 342 342 339 339 339 339 339 341 341
341 342 343 343 341 345 348 350 350 351 351 351 349 349 349 349 349 349 350 350 350 349 350 349 349 349 349 349 349 348 349 349 349 348 347 347 346 345 345 344 343 342 341 341 339 337 339 340 340 340 339 339 340 341 342 342 343 343 343 344 345 345 344 343 343 342 341 340 339 337 334 335 335 339 340 340 340 339 338 338 339 338 337 337 340
340 343 343 344 344 343 345 348 349 351 351 350 349 349 349 349 349 349 349 349 350 349 349 348 348 348 349 348 347 348 348 348 348 347 347 346 346 344 344 344 343 342 341 340 339 338 337 338 339 339 338 338 339 339 340 342 344 344 343 344 344 344 343 342 341 340 339 338 338 334 334 334 334 335 340 340 339 337 337 338 338 338 337 338 338
343 344 344 345 345 340 341 346 349 350 350 350 349 348 348 349 349 349 349 349 349 349 348 348 347 348 347 348 347 347 347 348 348 347 347 347 345 344 344 343 343 341 341 340 337 336 336 338 339 338 337 337 337 337 339 340 343 343 343 343 343 343 343 341 341 340 338 334 332 333 335 335 334 333 338 339 339 338 337 338 338 338 338 337 337
346 346 347 344 344 342 342 346 349 350 350 350 349 349 348 350 349 349 349 349 349 348 348 347 346 347 347 347 347 346 346 347 347 347 346 345 344 343 343 343 343 341 340 339 337 335 337 337 338 338 337 336 336 337 338 339 341 342 342 343 343 342 341 339 338 338 338 333 331 331 332 333 332 332 337 337 338 337 336 337 337 337 338 337 335
345 347 347 344 342 341 344 344 349 349 350 350 349 348 348 349 348 348 349 349 348 348 347 346 347 347 346 346 346 346 346 346 346 346 346 344 343 343 343 342 341 341 340 339 336 335 335 337 338 338 337 336 336 337 338 339 341 341 341 341 341 339 338 337 336 334 331 329 330 333 333 332 331 330 336 337 336 336 335 333 334 335 336 334 334
347 348 348 345 341 341 342 344 349 349 350 350 349 349 348 348 348 347 348 348 347 348 348 347 345 345 345 346 346 346 346 345 346 345 344 344 343 343 342 342 340 340 340 338 335 333 335 337 338 338 337 336 337 338 338 340 340 341 341 340 339 338 336 334 332 330 327 327 327 329 335 335 331 331 335 336 336 335 333 334 332 333 333 333 333
346 347 348 345 343 340 336 345 345 348 349 349 349 348 348 348 347 347 347 347 347 348 348 347 347 346 345 345 346 345 345 345 345 344 344 343 343 343 342 341 339 339 339 337 333 333 335 337 338 337 337 337 336 336 338 339 339 340 340 339 338 337 335 332 329 325 325 326 327 327 332 336 331 331 337 336 335 334 332 333 333 332 333 333 334
345 347 347 346 343 339 341 343 344 347 348 348 347 348 348 347 347 346 346 347 347 347 347 347 347 346 345 345 346 346 345 345 345 343 343 343 343 342 341 340 338 338 338 336 332 332 335 338 337 337 336 335 336 336 337 337 339 338 338 337 336 333 331 329 324 324 324 324 325 328 327 329 331 333 336 335 335 334 332 332 332 333 334 333 334
344 346 347 346 344 339 342 338 341 344 347 347 347 347 348 347 347 346 346 346 346 346 347 346 346 346 345 345 345 345 345 345 344 343 343 343 342 341 341 339 338 338 337 334 331 331 335 337 337 336 335 335 334 335 336 337 336 335 334 332 331 329 327 325 320 321 322 323 324 325 327 328 329 335 335 334 335 334 333 332 332 332 333 333 333
343 345 346 346 343 343 339 341 343 344 345 347 348 347 347 347 347 347 346 347 346 346 346 347 346 346 345 345 345 345 345 345 344 343 343 342 341 341 340 338 338 337 335 332 330 330 334 336 335 335 333 333 333 335 335 334 332 330 327 326 326 325 321 320 321 318 320 321 323 325 326 329 329 334 335 334 334 334 333 332 332 331 332 332 332
337 335 339 342 342 341 336 334 338 342 344 346 346 347 346 346 346 347 347 346 346 346 347 346 345 345 345 344 344 344 344 344 344 344 343 341 341 340 340 339 337 337 335 333 329 329 331 333 333 332 331 331 332 333 332 331 328 324 323 322 320 319 317 313 315 316 317 320 321 323 324 327 333 334 333 334 333 334 333 332 332 331 330 331 331
325 327 330 330 333 339 339 336 334 337 340 340 335 341 346 346 346 346 345 346 346 346 346 346 346 345 344 344 344 344 345 344 344 343 342 341 341 340 340 338 337 336 334 332 329 329 330 330 329 328 327 329 330 330 329 328 326 323 321 319 317 315 313 311 309 312 313 315 318 320 322 326 334 333 333 334 333 333 332 331 331 331 330 331 330
321 322 324 324 324 329 333 340 337 332 333 334 332 337 341 344 345 347 346 346 347 346 345 346 345 345 345 345 344 344 344 344 343 343 342 341 340 340 339 338 337 335 334 333 331 330 329 328 326 325 325 327 328 328 327 326 324 322 320 318 316 314 311 307 304 307 311 314 315 318 321 327 333 334 333 333 333 332 333 331 335 336 333 330 329
319 319 319 320 320 324 327 328 336 339 339 335 332 336 337 341 343 342 343 344 345 346 345 345 344 344 344 343 342 342 343 343 343 343 341 341 340 339 339 338 337 335 333 332 331 329 328 327 326 325 325 325 324 325 324 324 324 322 319 317 315 313 310 308 302 305 309 314 312 317 320 331 332 334 334 333 333 333 333 334 335 336 334 334 334
317 319 316 317 317 319 324 323 324 332 338 338 339 336 331 337 338 338 340 342 342 343 343 342 340 342 341 339 338 336 334 336 338 340 340 338 336 335 339 338 336 335 334 332 330 329 327 325 324 322 323 323 322 321 322 323 322 321 319 315 312 310 308 304 302 304 308 310 311 315 322 329 330 330 331 331 331 332 330 331 331 332 334 335 333
314 316 316 315 315 317 320 322 320 324 328 335 338 339 332 330 334 336 336 338 338 338 337 336 334 333 332 332 330 329 328 329 328 332 333 337 335 332 335 336 336 335 334 333 331 329 327 326 324 321 321 322 322 322 321 320 319 318 316 314 311 308 301 300 301 304 307 311 314 315 325 328 329 331 331 330 330 330 329 329 331 331 333 334 334
314 313 314 314 314 314 316 319 319 319 324 328 335 338 335 328 330 329 331 334 333 332 332 326 324 323 326 323 326 335 334 333 332 332 326 331 326 327 333 336 337 335 334 334 333 331 330 327 326 323 322 320 318 317 318 318 317 315 312 310 308 302 300 300 302 305 307 310 314 318 327 328 328 329 328 329 329 329 328 328 329 330 330 331 331
310 311 312 313 313 312 313 316 317 318 321 324 329 337 335 333 336 333 332 329 326 324 329 332 331 330 322 329 335 332 334 334 333 331 330 326 326 325 330 336 337 335 335 334 334 333 331 328 326 325 323 319 313 305 306 311 312 311 309 307 302 301 301 301 302 305 308 311 315 323 327 327 328 329 329 329 329 328 327 326 327 327 328 329 329
310 311 312 312 312 312 313 315 316 317 320 322 324 331 336 335 336 335 334 328 330 329 333 331 333 332 333 335 332 334 334 333 333 331 329 322 326 325 329 332 334 333 334 335 334 333 332 329 326 323 320 315 308 306 305 304 303 307 305 303 302 301 302 303 304 305 308 313 315 325 327 326 327 329 328 328 328 328 327 327 327 327 328 328 328
307 307 308 309 311 312 311 313 315 316 317 320 322 327 336 337 336 336 335 334 333 332 332 332 331 329 331 333 333 333 333 331 328 325 326 328 325 324 327 328 329 328 329 329 329 329 327 325 323 320 316 312 309 307 306 305 304 303 303 303 302 302 302 303 304 306 309 313 316 324 327 330 330 330 330 329 327 327 326 327 326 326 326 327 326
302 305 305 307 309 310 311 311 313 315 316 319 320 326 332 337 337 336 335 334 333 333 332 332 331 329 330 330 330 330 330 329 329 328 327 326 327 330 330 328 328 328 325 324 322 321 321 317 315 314 313 313 312 310 308 307 306 305 304 303 303 302 302 302 304 306 308 311 314 320 324 326 328 330 330 331 329 329 329 329 328 327 327 326 326
301 302 302 304 306 307 309 311 312 314 317 318 320 327 330 336 336 335 335 335 334 333 333 333 332 332 331 329 329 330 329 329 329 328 327 327 326 327 327 327 327 327 326 324 322 322 320 318 316 315 314 313 312 311 310 309 308 307 306 305 303 302 301 301 301 302 304 306 310 317 319 321 323 325 327 328 328 328 329 329 329 328 328 328 327
300 301 302 303 305 305 306 309 313 317 320 320 326 330 331 333 333 332 334 331 331 330 330 331 330 330 330 330 329 328 327 327 326 327 326 326 325 326 326 326 326 325 326 324 321 321 319 319 318 316 316 315 313 312 312 311 311 309 307 305 303 302 300 299 298 297 298 301 306 313 315 317 320 322 323 324 325 327 327 328 329 328 327 328 327
299 301 302 304 306 307 306 306 313 317 320 326 329 329 328 328 327 326 326 327 328 327 327 328 328 328 328 329 327 327 326 325 324 324 323 323 323 323 324 324 324 323 324 322 320 320 320 318 317 316 316 315 314 313 312 312 312 311 307 305 303 302 300 299 297 295 294 296 299 306 311 314 315 317 320 322 324 325 326 327 327 329 328 328 327
303 302 304 306 310 311 310 310 315 317 323 328 327 326 325 324 323 322 323 321 326 325 325 325 326 325 325 326 326 325 324 324 322 322 321 320 320 320 321 321 321 321 321 320 320 319 318 317 316 316 315 314 314 313 312 311 312 311 307 304 303 302 301 299 297 296 295 294 294 300 306 309 312 314 316 318 321 323 323 324 325 326 326 327 326
303 306 305 306 311 313 314 316 318 319 326 326 324 322 321 320 319 319 319 318 319 319 319 321 322 323 323 323 323 324 323 322 321 320 319 317 317 317 317 317 317 318 318 317 317 316 315 314 313 313 311 311 311 311 311 310 310 308 306 303 302 301 300 298 297 296 295 294 293 293 300 303 307 311 313 314 316 319 321 321 322 322 323 324 325
305 305 307 309 311 312 314 319 320 323 325 322 320 318 318 317 316 317 318 317 318 318 317 317 318 319 320 320 321 321 320 319 318 317 316 315 314 313 313 312 312 312 312 310 310 310 310 309 309 308 308 308 308 310 310 308 307 305 304 302 301 300 299 298 297 296 294 293 292 292 292 298 302 305 309 312 313 314 317 318 319 320 322 322 322
305 305 308 309 311 312 315 320 319 318 318 316 316 315 315 315 315 315 315 316 316 316 316 315 314 315 315 316 317 317 317 316 315 314 313 312 311 309 308 307 306 306 306 305 304 305 304 304 305 305 306 307 307 308 308 306 304 303 302 300 300 299 298 297 296 295 293 292 290 289 289 291 295 299 303 308 311 311 313 315 317 317 318 320 321
305 307 307 309 310 310 313 314 315 315 316 314 313 312 312 311 312 312 312 313 315 314 313 312 313 312 312 312 312 313 313 313 312 311 310 309 307 305 303 302 302 301 302 302 301 301 301 301 301 303 304 305 306 305 305 304 302 300 299 298 297 296 295 295 293 292 291 290 288 288 287 288 288 292 296 300 305 308 310 312 314 315 316 316 318
306 306 308 308 309 310 311 312 312 312 312 311 311 309 308 308 308 309 309 311 311 310 309 309 309 309 310 309 310 309 310 310 309 308 307 305 304 302 301 300 299 299 299 299 299 299 299 299 300 301 301 302 302 302 301 299 299 298 296 294 293 293 292 291 291 290 289 288 287 286 286 286 286 286 287 293 299 303 306 309 311 312 313 313 314
306 306 307 308 308 308 310 309 309 310 310 309 308 307 307 306 306 305 306 307 307 307 307 307 307 305 306 307 306 306 306 306 306 306 304 303 302 300 300 299 298 297 296 296 295 295 296 296 299 298 298 298 298 298 297 295 294 293 292 291 290 289 289 287 287 287 287 286 286 286 285 285 285 285 286 285 289 296 301 304 308 309 310 311 311
305 307 306 307 307 307 308 308 307 307 307 307 306 306 304 304 305 304 304 304 306 304 304 304 305 305 304 302 302 302 303 303 303 303 302 301 300 299 298 298 296 296 295 294 294 294 294 294 294 297 295 294 294 293 293 291 291 290 289 289 288 287 285 285 285 285 285 284 284 284 284 284 284 285 286 284 284 288 296 299 302 305 306 307 309
306 306 305 306 306 306 306 306 305 304 304 304 303 302 302 302 301 301 301 302 302 301 302 301 301 300 301 301 301 300 301 301 300 300 299 298 297 296 296 295 294 293 292 291 291 291 293 293 293 294 295 293 292 291 290 290 289 288 288 287 286 286 284 284 284 284 285 283 283 283 283 283 285 286 283 283 283 283 289 295 296 299 301 303 305
306 306 306 306 305 305 304 303 303 302 302 302 300 300 299 299 299 298 298 297 299 298 296 298 298 297 298 298 299 299 299 299 298 298 296 295 294 293 292 291 291 290 289 289 289 290 292 293 291 290 292 292 291 290 288 288 288 287 286 286 285 285 284 283 284 286 283 283 282 282 282 282 282 282 282 282 282 283 283 287 291 292 296 299 301
305 305 305 305 305 303 302 302 301 301 300 300 299 298 299 297 297 296 296 296 295 296 296 294 294 295 295 296 296 296 297 297 296 295 293 292 292 291 289 288 288 289 289 289 289 290 290 291 290 288 289 290 290 288 287 287 286 285 284 284 284 284 284 284 283 282 281 282 284 284 282 281 281 281 281 281 282 282 282 282 282 282 285 295 297
305 304 304 304 303 302 301 301 300 300 299 298 299 298 298 297 294 294 293 293 293 293 292 292 293 293 294 294 294 294 295 294 294 293 292 291 290 289 288 287 287 288 289 288 288 289 290 290 289 289 288 288 287 287 287 287 286 285 285 284 284 283 283 283 282 281 281 280 280 281 281 281 280 280 280 281 281 281 281 282 284 282 283 286 292
304 303 303 303 302 301 300 299 299 298 298 297 297 298 297 296 297 295 292 291 291 291 291 291 291 292 292 293 292 293 293 292 292 292 291 290 288 287 287 286 286 287 287 286 286 286 288 289 289 289 289 287 285 283 283 285 286 284 284 283 283 283 285 282 281 281 280 280 279 280 280 280 280 280 280 280 281 281 281 281 281 282 282 281 282
303 302 302 302 302 301 300 298 299 299 298 298 298 298 298 298 296 293 292 292 291 290 289 290 290 290 291 291 290 291 291 290 290 289 288 287 286 286 286 285 285 286 285 285 285 287 286 287 287 285 283 284 281 281 282 285 286 282 282 282 283 283 283 281 281 280 280 280 280 280 280 280 279 279 279 279 280 280 280 280 281 281 281 280 280
302 302 302 302 301 300 300 298 298 298 299 299 298 296 294 294 293 291 290 289 289 289 289 289 289 288 288 289 289 289 289 288 287 287 287 286 286 285 285 284 284 286 284 283 283 283 283 284 286 286 283 281 281 282 281 281 283 282 282 284 282 282 286 279 279 280 279 279 279 279 280 279 279 279 279 279 279 279 280 280 280 280 280 280 279
300 300 301 301 301 300 299 298 298 298 298 297 294 293 292 291 291 290 289 288 287 288 288 288 288 288 287 287 287 286 285 285 285 286 285 285 284 284 283 283 283 283 284 283 282 282 282 283 283 284 285 281 278 281 281 280 282 285 285 283 281 281 279 278 276 279 277 277 279 278 279 278 278 279 279 278 278 279 279 279 279 279 279 279 279
300 300 301 301 301 299 299 299 298 296 295 294 292 291 290 289 289 288 289 287 287 287 287 286 286 287 286 284 283 283 284 284 284 284 285 283 283 283 283 282 282 282 283 282 282 281 280 280 281 282 280 282 278 277 280 280 279 281 285 276 277 278 276 276 275 279 277 276 277 277 280 278 278 279 278 278 278 278 279 278 278 278 278 278 278
301 301 301 301 301 300 299 298 297 295 293 292 292 291 290 289 288 287 287 286 285 286 286 285 285 285 283 282 283 283 283 283 283 283 283 283 283 282 282 282 282 282 282 282 281 281 280 280 279 280 280 280 281 278 278 280 280 280 279 277 278 279 275 276 275 277 276 276 276 277 276 276 276 277 278 278 278 278 280 278 278 278 278 278 278
300 300 300 299 300 300 298 297 295 294 293 292 292 292 290 290 290 291 289 288 286 285 285 285 284 283 283 281 281 282 282 282 282 282 282 282 282 282 282 282 282 282 282 281 281 280 280 280 280 280 280 282 280 278 279 279 278 279 279 278 278 277 275 276 275 275 275 276 275 276 275 276 275 276 277 277 277 277 277 278 277 277 277 277 277
300 299 299 298 298 298 297 295 294 293 292 292 292 292 291 291 292 291 290 288 287 285 285 284 284 283 282 281 281 281 281 281 282 281 281 282 282 281 281 281 281 281 282 281 280 280 280 281 280 279 279 279 279 280 277 276 278 278 279 277 278 278 277 277 274 276 274 274 275 274 275 275 275 276 276 276 276 276 276 276 276 276 276 276 276
299 299 298 296 296 296 295 294 293 292 292 292 292 292 292 292 291 290 287 286 285 284 285 285 283 282 281 280 280 280 280 280 280 281 280 281 282 281 281 281 281 280 281 280 280 280 280 279 279 279 279 278 279 278 278 277 278 277 277 276 277 276 276 276 275 276 274 273 274 273 273 275 274 275 275 276 276 276 276 276 278 277 278 276 276
298 298 296 294 294 294 294 293 292 292 291 291 292 291 291 291 290 289 286 284 284 284 284 283 282 280 280 280 279 280 280 280 280 280 280 280 281 281 280 280 280 280 281 279 279 279 279 279 279 279 279 278 278 278 278 277 278 277 277 277 276 276 276 276 275 274 275 273 275 274 274 273 273 274 275 275 276 275 275 276 275 275 275 275 276
296 296 294 293 293 293 293 292 292 291 291 291 291 290 289 289 289 288 286 284 284 283 282 281 280 280 280 279 279 280 279 279 279 279 279 280 280 280 280 279 280 281 280 279 279 279 279 279 279 279 279 279 279 279 279 278 277 277 276 276 277 276 275 275 275 275 273 272 272 273 273 274 273 273 274 275 277 275 275 275 275 275 275 275 275
Wind_Speed
3 5 3 6 7 8 8 8 10 11 11 11 11 12 12 11 11 11 11 12 13 12 13 14 14 14 15 15 15 15 15 16 16 16 15 15 15 16 16 16 16 16 16 17 16 16 16 15 15 15 15 15 16 15 15 15 17 16 17 17 17 17 18 18 18 18 17 19 19 20 20 19 19 19 19 20 19 19 18 18 17 10 9 13 19
5 5 4 4 8 8 5 7 9 11 11 11 11 11 11 11 11 11 11 12 13 14 14 14 14 14 14 14 14 14 15 15 16 15 15 15 16 16 16 16 16 16 17 17 16 16 16 15 15 15 15 15 15 15 15 15 16 16 16 16 17 17 18 18 18 17 16 17 17 17 18 20 19 19 19 19 19 19 19 19 19 11 8 17 18
3 4 3 3 7 6 4 6 9 10 11 11 11 10 11 10 11 11 11 11 13 14 14 14 14 14 14 13 14 14 15 15 15 15 15 15 16 16 17 17 16 17 17 17 16 16 16 16 16 16 15 15 15 15 15 15 16 16 16 16 17 18 18 18 17 15 16 16 15 16 17 18 19 19 19 19 19 19 19 20 19 16 12 20 18
4 3 3 3 6 3 2 4 8 8 9 10 10 9 10 10 10 12 11 12 12 13 13 14 14 14 13 14 14 14 14 15 15 14 15 15 16 16 16 17 17 16 16 16 17 17 17 16 16 16 15 15 15 15 16 16 15 15 16 16 17 18 18 16 15 15 15 14 14 13 6 6 11 19 19 18 19 19 18 19 19 20 20 19 20
4 4 3 3 3 4 4 5 8 8 9 9 8 9 9 10 10 11 12 12 13 13 13 13 14 14 13 13 13 13 14 14 15 14 15 16 17 16 16 16 16 16 16 16 16 16 16 16 16 16 15 15 15 15 17 15 16 16 17 17 17 18 16 16 16 15 15 15 14 8 6 6 7 17 17 18 18 18 17 19 19 19 19 20 19
5 4 4 3 2 3 3 2 9 10 9 8 8 8 8 9 10 10 11 12 13 13 13 13 13 13 13 13 13 13 14 14 14 14 15 16 16 16 16 15 15 15 15 15 15 16 16 16 16 16 16 15 15 16 17 16 16 17 17 18 18 18 17 17 16 14 13 14 15 7 7 6 5 8 18 17 17 17 17 18 18 18 18 19 18
5 4 5 5 4 5 4 4 8 9 10 9 8 7 8 8 9 10 10 11 13 13 13 13 13 13 12 12 12 13 13 14 14 14 15 16 16 16 15 14 14 14 14 14 15 16 16 16 16 17 17 16 16 16 16 16 17 18 17 17 17 18 18 17 15 13 12 9 5 5 6 6 5 5 17 16 17 17 18 17 18 18 18 18 20
3 4 4 4 4 6 7 5 6 8 9 9 9 7 6 5 8 10 11 11 12 13 12 12 12 12 12 12 12 12 13 14 14 14 15 15 15 15 14 13 13 14 14 15 15 16 16 16 16 17 17 17 16 16 16 16 16 16 17 17 17 17 16 17 16 14 15 7 5 5 6 6 6 5 16 17 17 18 18 18 18 19 19 20 17
5 4 4 5 4 9 6 5 8 9 9 9 8 7 6 7 8 9 11 11 11 12 12 12 12 12 11 11 11 12 12 13 14 14 15 14 14 14 13 13 13 14 15 15 15 16 16 16 16 18 18 18 17 17 16 17 16 17 17 17 17 16 16 15 15 14 9 6 6 6 6 5 5 5 15 18 19 19 19 15 13 20 21 20 19
5 5 4 4 4 9 9 7 9 10 9 9 8 7 8 6 8 9 10 10 10 11 12 11 11 11 11 11 10 11 12 13 13 13 14 14 13 13 12 12 13 14 15 15 16 16 17 17 17 18 18 18 17 17 17 17 18 18 19 18 17 16 15 13 13 9 7 6 7 7 8 10 5 6 14 18 19 19 17 16 14 14 14 20 21
5 4 4 4 4 9 4 3 4 5 9 8 8 8 7 6 6 8 9 9 9 10 11 11 12 11 11 10 10 11 11 12 12 13 13 13 13 12 12 13 14 15 16 16 16 17 17 17 17 18 18 18 17 17 18 18 19 19 18 17 16 16 15 14 11 7 7 8 7 6 7 13 6 6 15 17 19 19 16 17 17 18 20 21 21
3 4 4 3 5 9 12 5 1 6 6 8 7 8 8 7 7 7 8 8 8 8 10 11 11 11 11 10 9 10 11 11 12 12 12 12 12 12 12 13 14 15 16 16 16 17 17 17 17 17 18 19 18 18 18 19 19 19 18 17 16 16 15 14 8 8 8 8 8 7 7 7 7 11 18 17 19 18 18 19 18 19 19 19 20
4 2 4 3 4 6 9 14 9 6 4 8 8 8 9 9 8 8 8 8 9 8 9 10 10 11 11 10 10 10 10 11 12 12 12 12 12 12 13 14 15 15 16 16 17 17 17 17 17 18 19 18 19 19 19 20 19 19 18 18 17 16 15 15 8 9 8 8 8 8 7 6 7 17 17 18 18 19 19 19 19 19 19 18 18
4 3 4 2 3 5 2 7 10 7 6 7 8 8 7 8 8 8 9 9 9 9 9 10 10 11 10 10 9 9 10 10 11 12 12 11 12 12 12 14 14 15 16 16 16 17 17 17 17 18 18 18 19 19 20 19 19 19 18 18 17 15 14 10 9 8 8 8 7 8 7 5 8 18 18 19 19 20 19 19 19 19 19 19 19
6 7 4 3 2 3 5 5 4 8 5 6 6 8 7 7 7 7 8 8 9 9 10 10 10 11 10 10 9 9 9 10 11 12 12 12 12 12 12 13 14 14 15 16 16 16 16 17 17 17 17 18 18 18 18 18 18 18 18 17 16 16 14 8 8 8 8 8 7 8 7 4 16 18 19 19 19 18 19 19 19 19 19 17 17
7 6 5 6 5 4 3 4 7 3 7 6 6 3 5 7 6 5 6 6 9 9 9 10 10 10 10 10 10 9 9 9 10 11 11 12 12 12 12 13 13 14 15 16 16 16 16 17 17 17 17 17 17 18 18 18 18 18 18 17 16 16 15 9 7 8 7 8 8 7 7 4 18 18 18 19 19 19 18 19 17 17 18 17 17
8 7 7 6 6 5 5 1 4 4 5 7 11 9 4 6 6 6 5 5 6 8 9 9 9 10 10 10 9 8 8 9 9 10 11 12 11 12 11 12 14 14 15 16 16 16 17 17 17 17 17 18 18 18 18 18 18 17 17 17 16 16 14 10 8 6 7 8 7 7 7 5 15 18 18 18 18 18 18 18 19 19 15 16 17
6 7 6 5 7 6 5 5 4 2 3 4 7 6 4 4 5 5 5 5 5 7 6 6 7 7 7 8 7 7 8 8 8 9 11 11 10 9 10 12 13 14 15 15 16 16 16 17 17 17 18 18 18 18 17 17 17 16 16 16 16 16 14 11 8 7 8 7 8 7 6 13 19 18 19 19 19 18 18 19 20 20 20 17 16
5 7 3 6 6 4 5 4 4 4 3 2 2 5 5 4 5 4 5 5 6 6 7 7 7 7 8 8 7 8 7 6 7 8 10 9 9 8 9 10 13 14 14 14 15 15 16 16 17 17 17 17 17 17 17 16 16 16 15 15 14 13 13 9 8 8 8 7 7 8 8 16 19 21 20 19 18 18 18 19 20 20 23 22 17
3 5 5 4 4 5 4 4 4 4 3 3 1 3 5 6 4 6 6 6 6 6 6 7 8 8 8 8 8 7 6 5 7 6 9 10 9 6 8 9 11 12 13 14 14 15 15 16 16 16 16 16 16 16 16 16 15 15 14 14 13 11 9 7 8 8 8 7 6 7 12 18 19 19 19 19 19 19 19 18 19 21 21 23 22
2 4 4 3 4 5 5 4 5 4 5 4 2 3 5 7 5 7 8 6 7 8 8 8 8 7 7 8 7 5 4 4 4 4 7 6 8 7 8 8 10 11 11 12 13 13 14 15 16 15 15 15 14 15 15 15 14 14 14 12 11 9 7 8 8 7 7 7 6 7 15 16 18 19 18 19 19 20 20 19 19 20 21 21 23
5 5 3 4 4 3 4 4 3 5 4 3 2 1 3 4 4 4 4 4 4 5 4 3 5 4 6 5 4 4 3 3 4 4 4 5 5 8 6 8 9 9 10 12 12 12 13 15 15 15 14 13 12 8 8 11 14 14 12 10 9 7 8 8 8 7 8 7 7 10 17 19 19 19 19 19 20 20 19 19 19 19 20 19 20
1 3 4 7 6 4 4 5 5 3 3 2 1 2 3 3 2 4 4 5 5 4 3 3 2 4 4 4 4 2 3 3 3 4 4 4 5 8 7 7 8 9 9 10 12 12 13 15 14 13 12 12 9 7 7 7 8 11 10 9 8 8 8 9 8 8 8 7 6 14 15 17 18 19 20 21 20 19 20 20 20 20 21 21 21
2 2 4 4 5 4 4 3 3 4 2 2 2 0 2 3 3 3 4 4 3 3 4 3 3 1 1 4 3 4 3 2 4 7 6 2 3 8 9 8 9 9 11 8 10 12 15 15 12 11 8 6 7 6 7 7 7 6 7 8 8 8 9 8 7 8 8 9 10 17 18 23 23 22 20 20 20 19 19 19 20 20 21 20 20
2 3 3 3 4 5 4 3 3 3 2 2 2 1 2 3 4 5 5 4 3 3 3 3 3 4 3 4 3 4 4 4 3 3 4 2 2 3 5 3 3 4 8 5 5 7 7 6 6 6 6 6 7 6 6 7 7 7 7 7 8 8 8 8 8 8 9 9 13 21 22 24 24 24 23 21 20 22 22 21 21 21 21 20 20
2 2 2 3 3 3 4 4 3 3 2 2 3 1 0 3 4 3 6 5 4 4 4 4 4 4 4 5 5 5 4 4 4 4 4 4 2 5 4 4 5 3 5 4 5 6 7 6 6 6 6 6 7 6 6 7 7 7 7 7 9 8 8 8 8 9 8 9 13 22 22 22 22 22 22 22 22 21 21 22 21 21 22 21 21
0 2 3 3 3 3 3 3 4 3 3 3 2 1 1 1 4 2 5 5 4 4 4 5 4 5 4 5 6 5 5 4 4 5 5 4 4 4 5 4 5 4 4 5 5 5 6 6 7 6 6 7 7 7 7 7 7 8 7 8 9 9 8 8 9 9 9 9 13 22 21 23 23 23 22 21 21 22 23 22 23 22 22 21 22
1 2 3 3 3 3 4 3 4 4 2 3 1 1 2 2 5 4 4 5 6 5 2 6 4 5 4 5 5 5 5 5 5 6 5 5 5 5 5 5 4 4 4 5 6 6 6 5 7 6 7 6 7 7 8 7 7 7 9 8 8 8 8 8 9 9 9 10 11 18 22 23 23 23 23 23 22 22 22 22 23 23 23 23 22
1 2 3 3 2 3 3 3 4 5 3 2 3 2 2 2 5 5 5 1 6 4 4 5 4 6 5 2 7 6 5 5 5 5 6 6 5 6 6 5 5 5 6 6 5 7 5 5 7 6 6 6 5 7 8 7 7 7 8 9 8 8 8 8 8 9 9 9 10 14 22 22 23 23 24 24 23 23 24 24 24 25 24 23 22
2 2 2 3 3 3 3 4 6 5 4 4 3 3 3 4 7 5 3 2 4 5 4 6 3 5 6 2 5 5 5 6 6 5 7 6 6 6 6 6 6 5 5 7 5 6 5 5 6 6 7 6 6 6 9 8 8 8 8 9 9 8 7 8 8 8 8 9 9 11 21 22 23 23 24 24 24 24 24 24 24 24 23 23 24
1 2 2 3 3 4 5 4 6 5 4 4 4 4 5 5 7 4 3 4 4 5 5 5 5 5 5 5 6 5 6 6 6 6 6 6 5 6 6 5 6 6 6 7 5 7 5 6 6 7 6 6 6 7 9 9 8 9 9 10 9 8 8 8 8 8 9 9 8 8 12 21 22 23 23 23 24 23 24 24 24 23 23 23 23
2 3 2 3 4 4 3 3 2 3 6 6 5 6 6 5 5 6 6 3 2 5 6 6 5 5 5 6 5 5 6 6 7 6 6 6 6 7 6 6 6 5 5 6 6 6 7 7 7 7 7 7 7 8 8 9 9 8 9 10 8 8 8 8 8 9 9 9 8 8 8 10 19 22 22 23 24 24 23 24 24 24 24 24 24
2 2 2 3 3 3 1 3 4 4 5 6 5 6 6 3 2 8 5 3 2 5 6 6 6 5 5 7 4 5 5 7 6 7 6 7 6 7 7 6 5 5 5 7 8 7 7 7 7 6 7 7 9 9 8 9 10 8 9 9 8 9 8 8 8 8 10 9 8 7 8 8 9 15 21 22 23 24 24 24 24 24 24 24 24
3 2 1 3 1 1 2 3 4 5 5 4 7 5 6 4 4 7 5 2 3 5 6 5 6 5 6 6 5 5 6 6 8 7 7 7 6 6 7 6 5 4 5 6 7 6 7 7 6 8 7 8 9 8 9 10 8 8 9 8 8 8 8 9 8 8 8 8 7 8 8 8 8 8 9 18 22 23 24 24 24 24 24 24 24
3 2 2 1 1 1 2 4 5 6 5 5 6 7 5 5 4 6 5 4 4 5 6 5 6 5 6 4 6 6 6 6 6 8 7 7 7 6 6 5 5 4 6 6 6 5 6 8 6 10 8 9 9 8 9 9 9 10 8 7 8 7 8 8 7 8 8 7 8 8 8 8 8 8 8 8 13 20 23 23 24 24 25 24 24
4 3 2 1 2 3 3 5 5 6 5 6 4 8 4 7 3 5 6 6 5 4 4 5 7 5 5 6 6 6 6 6 6 7 8 6 6 7 6 5 6 4 4 5 6 8 7 8 6 7 12 8 10 9 8 10 9 9 7 8 7 7 7 7 8 8 6 7 8 8 8 8 8 8 8 8 8 12 22 22 23 24 24 24 25
4 4 4 3 3 5 4 4 6 5 6 7 4 10 3 8 4 7 6 6 4 3 4 6 7 4 5 7 6 6 6 6 7 7 8 7 7 7 6 5 5 6 8 6 7 5 7 9 7 6 9 10 11 11 9 9 9 8 7 8 7 7 8 7 6 6 5 9 8 8 8 8 8 9 8 8 8 8 14 21 21 22 23 24 24
3 4 5 5 5 5 5 5 5 5 5 7 3 8 5 7 6 6 7 6 6 4 4 5 7 4 4 7 6 5 6 6 7 7 8 7 7 7 6 6 6 8 8 7 7 6 6 9 10 6 6 10 9 10 10 8 8 8 8 8 7 8 7 7 6 6 7 8 8 8 7 6 8 8 8 8 8 8 8 13 19 19 22 23 24
4 5 5 4 5 5 6 6 7 6 7 8 5 8 8 8 7 6 8 8 7 5 6 7 5 5 6 6 6 5 6 6 7 7 8 8 6 6 7 5 6 8 8 8 8 7 8 8 12 9 8 7 9 8 9 9 9 8 9 8 7 7 6 6 6 7 7 7 7 6 6 8 7 8 8 8 7 8 8 8 8 8 11 22 21
5 5 6 6 6 6 6 6 6 7 6 7 5 6 7 7 7 6 8 6 4 4 5 5 2 5 6 6 6 5 6 6 7 7 8 8 8 7 7 4 5 7 9 10 8 8 11 12 10 13 12 9 7 7 7 11 10 10 8 7 7 6 7 6 7 7 7 7 6 6 7 6 7 7 8 7 7 8 8 7 7 7 7 13 20
6 7 7 7 7 8 7 6 6 8 7 7 7 8 8 7 5 5 6 3 3 3 5 3 3 5 7 7 6 6 6 7 6 7 7 8 7 7 7 5 5 7 9 8 7 8 7 9 9 7 12 11 6 4 3 3 11 8 6 6 7 5 5 6 8 7 7 6 6 7 6 8 8 8 7 6 7 7 7 7 7 7 7 7 10
8 8 9 8 8 8 9 8 6 6 6 6 7 6 4 5 7 5 7 5 4 2 5 4 4 5 6 7 6 5 6 6 6 6 7 8 9 7 7 7 7 8 8 6 6 7 8 8 10 8 5 6 4 3 3 1 4 6 7 3 3 3 3 6 8 7 6 7 6 7 7 7 7 5 5 6 7 7 7 6 6 7 7 7 8
8 9 9 9 9 8 8 8 8 8 6 5 5 5 3 5 5 6 5 6 5 3 4 4 4 5 5 6 5 5 6 6 5 5 7 7 8 8 7 6 6 8 9 8 7 7 5 6 6 11 8 4 5 4 4 2 5 3 3 5 1 2 1 4 2 4 5 5 5 6 6 6 6 5 5 6 6 6 6 6 6 7 7 7 7
8 8 9 11 9 8 8 9 8 7 7 5 5 6 7 8 8 7 5 4 6 5 7 6 7 7 8 5 5 3 4 5 4 5 6 6 6 8 7 6 6 4 8 9 7 7 6 6 7 7 10 7 3 5 4 3 3 7 2 0 2 3 2 1 1 2 2 2 6 5 5 5 5 5 5 7 6 5 5 5 6 6 6 6 6
10 10 10 10 8 10 9 10 8 8 7 8 8 8 9 10 9 9 8 10 7 5 6 6 5 5 5 5 3 3 3 5 5 4 6 7 5 6 7 6 7 5 6 8 7 6 5 4 6 6 4 9 5 3 5 4 5 3 6 4 2 1 1 2 1 1 4 3 4 5 6 7 7 6 6 5 5 5 5 6 5 5 6 6 6
12 11 9 9 9 9 9 9 8 7 8 9 10 9 10 12 10 9 8 6 7 5 7 9 7 6 5 1 4 3 3 4 4 4 5 5 6 6 6 7 7 6 6 8 7 6 5 6 4 7 7 4 11 6 4 3 6 7 5 2 1 2 5 2 2 1 1 1 1 2 5 5 4 5 5 6 6 6 5 5 5 6 5 6 6
10 8 8 8 10 10 10 9 9 8 7 9 9 8 8 8 11 13 13 12 11 2 4 4 5 5 5 4 3 4 3 4 4 4 4 5 6 6 7 7 7 7 6 8 7 6 5 5 4 7 7 8 8 7 8 5 4 7 5 5 7 5 3 5 2 2 2 2 2 2 3 4 3 4 6 4 4 4 4 3 4 4 5 4 5
10 9 9 8 10 11 11 10 7 8 8 9 10 8 9 9 6 4 8 10 11 11 8 6 4 4 6 4 4 4 3 3 5 4 4 5 6 7 6 7 8 6 6 7 7 6 6 5 5 7 6 4 7 11 6 3 7 1 2 5 6 6 7 8 3 3 4 4 1 3 0 3 3 3 3 4 4 4 3 3 3 3 3 4 4
10 11 10 9 8 9 10 9 9 8 8 10 10 8 6 7 7 7 7 5 7 8 8 5 6 4 6 4 4 4 4 3 3 4 4 5 5 7 7 7 7 6 6 6 5 5 7 7 7 7 7 6 5 5 7 6 8 6 6 4 7 6 6 4 2 3 3 3 0 0 3 3 2 1 3 3 3 3 2 1 2 2 3 3 5
9 9 7 7 8 9 10 11 10 8 8 10 9 8 7 6 7 7 11 9 8 7 8 11 7 5 6 5 4 5 5 4 3 3 5 4 7 7 7 7 7 6 5 6 6 6 5 6 6 7 7 8 5 6 8 6 6 4 3 6 5 3 4 3 3 4 4 3 4 2 1 1 4 2 1 2 3 3 2 1 2 3 4 4 5
8 9 9 9 9 10 10 11 11 9 9 10 10 10 7 7 8 9 12 14 12 12 10 7 8 6 7 6 6 5 4 5 4 3 4 6 7 5 7 6 6 6 7 6 6 7 6 7 7 7 8 9 7 8 7 5 5 5 3 5 7 6 6 4 5 2 4 2 3 0 1 3 2 4 2 3 2 0 1 0 1 2 3 3 3
Wind_Direction
211 188 174 180 193 174 161 160 136 125 118 115 113 110 108 111 109 97 93 94 96 98 94 88 85 88 94 93 92 91 90 87 82 79 77 75 71 67 62 59 58 58 57 56 55 55 54 54 54 53 53 55 57 57 57 57 63 65 69 70 67 66 64 61 57 51 49 54 56 54 52 52 50 49 49 48 47 44 42 40 36 27 32 31 33
184 188 174 185 181 172 178 148 133 125 124 119 114 113 111 113 110 99 97 101 101 97 95 93 90 87 87 92 94 93 90 87 84 82 78 72 68 65 61 57 55 55 54 53 54 55 55 55 55 54 54 55 56 58 59 59 66 70 74 73 73 69 66 63 62 56 53 54 54 52 52 52 50 49 48 49 47 44 43 42 40 35 30 34 35
163 160 182 177 173 169 181 152 133 128 127 122 117 114 115 113 108 104 105 107 102 102 97 94 91 88 85 85 89 91 90 89 87 84 80 73 68 63 60 56 53 52 52 52 53 56 56 57 57 56 55 54 56 59 61 63 67 74 77 75 73 71 68 66 62 57 58 57 55 53 51 50 51 50 48 47 46 45 43 43 42 40 34 35 36
147 166 158 156 149 144 215 166 129 122 120 115 114 116 116 113 108 104 107 104 100 95 93 90 89 87 83 83 84 86 90 91 88 85 80 76 71 65 59 55 52 50 50 52 53 55 57 58 58 57 56 56 58 62 67 69 71 79 81 78 73 73 69 64 59 58 55 55 54 51 36 33 45 49 49 47 45 44 44 43 43 43 39 35 36
155 155 144 148 144 161 194 141 134 127 118 113 116 116 115 116 111 106 107 105 99 94 93 92 92 91 87 85 85 87 90 91 89 85 79 74 70 65 59 55 52 51 50 52 55 57 59 59 59 57 58 60 62 67 71 73 77 83 84 81 78 74 70 66 62 57 57 57 54 45 37 32 42 51 52 51 47 43 44 44 44 45 43 39 36
158 155 146 148 131 116 81 128 139 133 127 120 121 117 116 113 111 110 108 105 99 94 90 92 91 90 87 87 87 86 86 88 89 87 82 78 73 66 61 56 53 52 52 55 57 59 61 61 60 60 61 63 68 72 74 76 81 85 86 83 79 76 74 71 65 61 58 61 58 46 39 35 40 49 56 55 52 48 46 46 46 46 45 44 41
160 149 140 146 146 142 156 184 146 137 131 127 126 127 124 118 117 112 110 104 102 95 90 91 94 93 93 89 89 89 88 89 87 85 83 80 75 68 63 59 55 53 54 57 59 61 62 63 63 64 65 67 70 72 76 81 83 84 84 83 81 79 73 68 62 59 60 57 42 42 42 41 36 47 56 56 53 51 48 47 48 48 46 46 43
152 144 139 136 146 156 163 192 146 138 135 134 137 140 126 93 116 119 111 109 105 102 98 95 96 98 96 93 91 92 90 88 89 88 85 82 78 73 67 60 57 55 54 56 59 60 63 65 66 66 67 67 69 71 75 79 78 80 79 77 73 68 69 68 65 62 59 47 42 40 40 37 39 43 54 54 51 50 48 45 47 47 46 45 44
156 143 139 130 143 155 151 195 154 146 146 144 146 139 128 111 125 126 121 118 112 107 104 101 99 99 99 98 97 94 93 91 89 90 89 85 80 75 69 61 57 55 54 56 59 61 62 65 67 67 66 66 66 68 73 75 77 76 76 74 70 68 67 67 66 59 49 33 31 32 45 38 40 47 53 51 51 48 48 45 39 44 44 42 41
148 134 141 137 147 144 156 201 155 152 151 149 151 149 138 116 133 129 128 122 112 114 113 108 103 101 101 101 101 100 97 95 94 94 91 86 81 76 70 63 57 54 53 56 59 60 62 65 66 67 67 67 65 67 69 71 71 73 71 70 68 64 60 57 50 40 41 36 34 26 47 53 41 43 50 52 53 50 48 51 48 49 47 47 42
101 140 136 132 139 122 107 175 127 168 151 149 154 148 134 125 124 125 122 117 118 119 116 112 108 104 105 105 102 103 100 100 100 99 94 89 84 78 72 64 59 54 52 54 58 60 63 66 65 66 68 67 67 68 68 68 68 66 65 64 61 57 54 49 46 37 35 36 35 29 25 43 38 40 49 51 52 52 45 48 44 45 43 45 44
105 115 127 125 138 146 168 133 225 162 151 151 155 149 141 141 136 134 131 128 128 123 118 114 113 109 108 109 107 106 107 105 105 104 100 93 88 80 71 66 60 56 54 55 57 61 64 66 66 65 65 65 65 67 69 68 66 62 59 56 54 52 47 44 41 36 31 28 30 25 30 31 40 46 48 50 50 50 47 48 47 44 44 43 45
119 97 131 141 137 160 167 145 207 175 175 156 154 154 152 152 148 149 143 142 137 130 123 120 117 116 114 116 115 112 113 111 109 107 101 97 90 81 73 68 64 59 57 58 58 61 66 67 66 65 64 63 64 66 67 65 61 57 54 51 48 45 45 43 37 34 30 26 22 18 19 32 40 50 49 48 48 48 46 45 45 44 44 41 42
104 128 126 138 112 135 153 166 166 165 194 158 150 152 155 160 157 156 146 146 142 139 135 127 125 121 118 117 115 114 116 114 113 112 108 102 92 82 76 72 69 65 63 62 62 64 66 67 66 66 64 63 66 67 65 64 61 58 55 51 48 46 45 43 41 37 33 27 22 18 14 20 50 51 50 47 47 46 44 44 45 43 43 39 40
64 35 50 76 78 99 99 44 297 160 177 149 148 156 154 164 166 154 151 147 147 146 141 135 133 126 126 125 123 120 118 119 118 118 115 107 100 90 82 78 74 70 67 66 67 68 69 68 67 66 66 67 67 68 68 66 64 61 59 56 52 51 52 49 42 38 34 26 19 19 10 358 54 50 51 50 49 51 47 45 45 41 41 40 39
50 41 44 54 39 48 95 166 259 175 161 98 31 353 153 154 164 154 151 155 151 152 147 140 138 133 132 134 131 128 128 125 123 122 117 111 103 98 89 85 82 76 72 70 70 71 71 69 68 67 67 68 70 70 68 67 65 63 61 58 56 55 54 59 48 40 35 28 21 17 9 360 53 53 50 51 47 50 49 46 45 42 40 39 38
39 48 51 51 35 31 37 93 179 187 167 144 166 220 162 127 130 132 137 154 150 150 152 144 141 140 138 139 135 131 129 129 125 122 120 114 113 101 96 92 89 82 76 74 72 72 71 69 67 65 65 67 69 69 69 67 66 63 60 58 56 55 53 56 54 42 39 33 25 12 4 29 50 51 50 50 47 45 44 42 38 28 34 40 35
43 51 29 39 43 31 34 17 27 158 138 149 162 185 136 123 124 101 92 97 122 142 142 144 140 134 127 119 119 118 126 126 121 117 116 120 108 101 102 99 96 90 84 80 78 76 74 72 68 67 68 68 69 70 69 68 66 63 59 56 55 53 51 53 52 40 38 35 25 14 7 46 48 47 47 44 41 36 37 35 37 38 34 29 19
33 54 37 29 38 27 36 35 352 35 38 85 131 125 171 178 139 107 87 91 104 131 140 133 121 104 100 100 97 90 82 98 116 112 119 114 104 107 104 103 101 100 93 86 83 80 77 75 73 73 72 72 72 70 69 66 64 61 58 56 52 49 47 48 46 38 34 30 21 22 24 44 48 46 45 42 40 36 36 37 35 40 38 35 41
44 49 25 39 26 33 17 30 31 29 39 24 173 147 166 178 187 117 105 107 95 90 93 94 99 104 107 109 108 102 94 75 82 99 114 114 114 112 102 100 103 102 99 94 88 85 81 78 78 79 78 74 71 68 68 66 63 60 58 57 53 49 49 49 46 42 33 24 17 28 43 48 50 51 49 48 45 44 41 40 39 39 38 42 42
53 36 32 10 36 30 9 20 13 11 32 23 328 159 164 163 152 130 121 117 93 88 98 106 107 105 108 114 113 103 86 94 87 86 84 99 121 121 113 110 108 104 101 97 92 88 85 82 80 79 79 76 69 62 61 62 59 60 58 56 54 53 48 48 47 43 34 22 19 38 52 55 55 53 52 49 48 46 44 41 40 36 37 38 39
350 350 7 10 25 22 4 15 4 6 28 5 338 154 144 161 161 163 139 122 86 92 91 96 120 117 122 124 103 95 91 96 97 94 89 94 116 129 119 117 113 109 106 100 95 89 86 86 83 78 73 71 69 66 59 55 53 55 53 52 56 52 47 48 47 41 35 19 19 47 53 55 54 54 52 51 50 49 48 45 41 38 36 36 36
14 350 341 353 6 350 5 7 350 329 2 35 336 353 133 130 181 151 125 103 113 109 101 108 102 136 148 121 99 108 90 88 93 104 101 106 133 144 138 123 113 107 102 99 95 89 84 85 83 79 75 71 68 67 66 63 52 48 51 54 55 51 50 49 49 41 33 26 16 48 58 59 58 56 53 50 49 50 49 48 46 44 41 39 36
303 324 320 321 336 351 337 334 317 319 347 356 325 337 147 166 177 135 125 106 105 114 120 115 102 82 129 111 112 107 106 90 89 96 95 95 122 144 146 134 114 101 94 87 82 77 77 81 76 74 72 72 75 69 70 66 63 58 58 60 60 54 51 47 46 41 33 27 27 21 43 49 51 48 49 50 49 47 46 46 45 44 42 41 39
267 315 325 309 325 327 330 318 318 291 328 333 256 207 165 154 160 148 137 120 121 125 120 126 126 127 110 97 101 100 98 95 97 91 88 112 155 126 129 79 84 93 95 92 91 86 81 81 83 77 73 74 73 67 73 72 67 66 66 67 68 59 54 48 47 44 36 32 32 35 41 47 46 46 47 47 44 43 42 42 42 40 38 38 37
299 319 284 310 309 307 301 304 309 299 295 307 289 36 338 165 150 179 133 129 131 141 135 128 121 118 118 112 103 97 96 95 95 97 96 90 53 96 90 117 100 85 93 88 84 91 95 93 86 83 76 70 82 76 69 75 80 75 71 72 75 66 59 55 52 50 42 36 31 37 42 47 48 46 44 44 45 43 40 40 44 42 41 40 39
297 261 283 292 296 298 294 305 305 303 296 291 294 28 228 131 108 106 124 116 115 120 121 114 100 107 116 118 114 104 92 95 88 89 81 78 78 73 86 77 90 78 88 94 82 88 97 96 90 87 90 84 81 82 74 70 73 82 76 71 76 77 68 63 59 56 48 42 34 33 43 47 47 47 47 46 46 44 41 38 38 40 40 41 42
285 270 297 285 278 298 296 311 295 278 252 230 112 107 86 135 111 95 58 124 116 108 110 120 115 110 88 110 110 111 118 105 96 89 84 77 69 75 83 81 79 71 78 84 96 82 74 80 94 90 91 84 87 84 79 70 71 81 84 76 72 75 70 66 67 60 54 49 40 31 40 45 47 46 48 48 48 45 44 42 41 39 39 38 39
274 291 286 307 302 289 283 285 275 253 231 198 131 138 114 134 92 65 99 320 122 121 128 89 131 109 71 94 123 119 112 111 105 95 92 78 73 70 74 77 79 80 85 74 81 92 84 96 93 93 85 86 82 87 85 71 76 75 81 80 71 69 68 64 64 61 56 56 47 33 39 41 44 45 46 47 47 48 46 44 42 40 39 39 39
218 258 293 282 280 281 277 257 245 229 192 156 126 130 117 110 84 73 76 79 95 113 111 98 80 85 97 79 89 113 116 115 105 97 98 92 90 86 78 74 74 69 83 83 72 90 98 88 84 87 89 84 80 81 87 77 73 74 71 77 68 63 63 63 59 58 59 56 46 37 34 40 40 42 44 45 46 45 45 45 44 43 41 40 38
242 270 274 273 284 289 267 219 222 220 149 134 120 100 88 84 97 104 79 49 90 97 90 90 86 87 93 98 81 91 108 103 105 106 99 100 93 90 82 81 77 67 78 89 79 86 86 82 88 87 85 84 74 70 82 81 75 71 72 71 69 65 62 61 60 57 57 53 46 40 32 35 38 38 40 43 44 44 43 42 43 41 40 40 41
221 253 249 286 297 288 272 174 175 124 112 116 114 104 91 79 120 101 76 38 49 98 96 92 78 88 93 83 96 102 104 99 104 101 105 103 97 91 85 80 78 74 79 91 93 90 85 81 74 80 82 82 81 76 76 86 80 74 75 72 69 69 63 61 61 59 59 54 44 39 38 32 33 37 37 38 41 42 42 41 40 40 39 38 41
221 249 270 296 294 306 37 90 106 104 118 117 97 106 92 48 110 92 71 51 71 87 93 98 96 76 83 85 81 104 101 112 100 101 101 96 95 96 88 80 78 85 90 93 94 94 88 86 75 75 82 85 83 82 81 77 80 74 73 74 73 67 63 63 60 55 56 52 45 41 41 36 33 32 33 35 37 39 41 40 39 39 39 38 38
218 237 275 262 317 301 59 73 77 92 90 98 106 92 92 77 30 84 79 73 76 93 87 82 91 94 80 78 81 78 96 98 113 106 100 96 90 89 98 88 79 76 87 84 86 82 90 86 88 82 68 80 81 83 87 82 74 73 69 69 68 68 67 67 59 55 55 52 45 45 41 40 38 35 29 30 32 36 38 39 39 39 40 39 37
221 229 216 257 69 16 76 91 86 89 90 76 101 82 87 80 58 88 81 66 59 89 96 90 82 77 90 74 83 77 77 91 102 111 101 101 99 95 84 87 84 79 82 76 87 66 75 71 88 91 80 77 78 72 82 81 81 73 69 71 71 69 65 66 59 53 50 50 50 46 43 42 39 40 34 34 26 30 37 39 40 39 38 38 38
203 189 174 199 117 70 78 105 88 81 78 70 70 88 69 82 71 77 77 58 48 60 89 102 88 65 84 82 73 82 91 91 97 104 100 97 103 96 88 88 88 87 69 75 79 88 89 84 55 95 100 87 91 81 81 86 81 78 69 69 69 65 66 60 56 54 47 53 50 47 42 41 40 39 38 36 35 26 35 38 39 39 38 37 37
193 175 171 153 124 103 97 99 97 84 92 86 66 95 64 81 59 71 74 69 58 56 72 76 88 84 98 92 72 79 85 92 94 96 104 103 97 94 88 87 97 90 86 80 81 85 102 93 70 51 99 109 99 97 84 86 84 79 74 71 59 64 60 55 52 54 51 55 50 46 45 40 39 38 37 37 35 32 30 37 37 37 36 37 37
193 180 172 164 144 129 114 107 89 76 95 94 66 98 77 94 73 78 72 70 66 35 51 70 78 78 87 91 92 84 84 86 88 94 97 93 95 96 92 88 94 92 92 88 87 88 85 101 92 58 76 104 102 103 99 90 88 83 72 66 60 61 57 54 54 51 54 54 50 47 41 42 41 38 37 38 38 35 34 31 34 33 31 35 36
184 179 165 147 129 124 119 115 110 109 101 94 87 97 92 86 91 90 80 75 65 50 59 66 69 93 39 82 86 89 89 88 91 95 103 104 93 96 95 87 100 102 98 94 93 93 90 88 102 91 67 67 98 99 107 102 90 82 74 61 63 58 55 55 55 55 52 50 51 48 48 39 42 37 38 39 36 39 37 35 32 32 25 32 33
179 173 161 149 143 134 129 125 125 124 113 116 123 88 98 95 103 100 91 70 57 61 48 62 21 57 65 69 83 90 90 91 94 100 106 107 103 102 99 94 95 103 103 103 104 107 114 105 98 106 100 81 64 83 101 103 86 78 76 65 57 64 57 56 57 53 51 46 44 45 48 40 43 38 38 34 40 38 38 36 37 32 33 30 33
182 173 162 162 160 152 143 137 143 139 143 144 142 133 122 105 75 61 100 94 92 84 70 59 42 60 50 50 73 74 97 100 102 113 111 107 104 105 102 88 92 97 100 104 115 107 101 109 107 91 111 109 70 31 36 83 107 76 66 71 63 45 64 62 56 49 46 43 41 50 39 44 36 36 27 35 40 38 37 35 35 35 32 31 26
188 172 169 169 163 157 155 149 142 145 155 159 147 137 125 147 147 145 125 112 105 69 102 69 58 63 54 42 42 75 95 104 110 112 109 115 115 107 105 113 112 100 99 105 101 104 112 113 120 88 22 99 88 3 340 56 54 133 129 97 54 35 80 62 58 40 40 37 41 49 41 47 40 31 25 41 40 38 36 34 36 37 34 33 29
179 178 174 167 166 163 159 156 161 152 154 144 136 125 106 91 108 125 127 109 55 43 56 75 69 71 57 46 37 64 97 100 105 109 113 108 112 115 113 116 110 120 112 102 105 100 105 116 123 123 107 61 97 36 20 16 136 127 122 100 121 71 358 11 7 39 24 40 42 53 48 47 41 33 32 45 40 33 35 32 39 37 34 33 30
179 184 179 173 169 168 162 161 164 155 147 135 111 98 90 84 78 86 79 77 119 103 90 73 64 64 58 40 40 63 80 100 96 104 103 106 116 115 118 110 103 101 118 118 111 107 108 108 107 110 124 105 60 43 19 15 120 141 105 76 181 120 97 35 1 317 9 18 44 51 47 47 39 34 39 45 35 35 33 36 40 37 34 34 33
188 186 180 177 171 169 164 163 160 156 144 137 132 130 112 97 94 88 91 95 80 87 91 56 48 65 80 63 42 47 75 92 91 96 109 111 106 111 112 107 104 100 109 108 105 112 106 109 118 115 113 134 117 119 28 23 51 0 138 112 60 62 172 180 118 99 7 8 9 37 45 37 29 30 35 32 38 38 30 35 35 35 35 33 30
192 188 178 174 168 166 163 163 156 149 144 142 145 149 143 140 138 132 125 111 118 139 138 143 147 130 119 97 55 50 70 84 85 94 99 109 108 107 108 110 106 103 100 102 109 103 99 98 111 125 107 101 129 120 101 36 66 53 55 102 137 170 169 212 94 137 318 163 311 40 63 42 28 33 33 32 27 24 26 32 30 33 32 31 23
190 173 175 175 169 165 166 163 160 153 149 146 149 150 147 159 160 158 152 154 143 109 60 61 106 109 98 89 81 59 51 95 86 90 97 104 107 103 105 105 104 99 97 103 102 110 114 110 121 104 116 131 122 113 128 153 98 46 40 70 71 57 113 133 167 101 81 323 16 3 359 30 22 41 38 29 21 28 17 29 31 37 35 26 21
171 168 175 172 173 168 164 162 156 154 157 154 158 165 160 165 159 155 149 148 150 144 134 106 90 104 107 98 93 75 64 72 102 93 105 112 112 106 108 100 95 89 96 101 117 126 109 89 94 103 98 106 125 127 145 185 128 86 29 64 60 60 54 67 89 152 153 151 292 334 309 15 31 29 32 26 20 24 16 8 29 35 39 26 23
168 176 179 174 166 162 161 158 158 157 158 160 160 166 168 166 156 146 124 80 100 118 120 108 119 118 111 104 103 102 87 69 81 116 114 115 112 110 99 99 103 106 110 113 113 116 118 124 116 104 105 88 91 124 114 120 112 143 110 55 64 63 59 66 82 68 130 116 268 311 305 336 43 10 358 355 355 31 17 6 48 40 40 32 24
173 169 165 162 167 161 163 163 163 160 160 163 163 164 166 157 151 162 134 123 116 100 127 128 131 137 131 129 130 121 114 103 102 120 114 107 102 99 104 113 117 122 121 122 117 109 107 105 112 114 112 99 80 96 112 120 109 116 113 146 115 87 66 43 36 84 53 84 139 176 216 346 357 284 221 6 334 351 355 30 45 42 38 33 23
166 167 169 172 167 167 164 169 167 159 163 167 165 169 165 167 167 162 146 136 139 137 134 134 137 143 150 148 145 137 132 138 139 112 103 105 98 104 117 118 120 125 122 120 120 122 125 117 114 104 103 113 114 108 98 96 110 108 110 139 154 163 172 157 179 164 138 131 79 225 251 196 208 313 289 343 325 320 133 33 99 62 58 38 30